When you browse on this site, cookies collect data to enhance your experience and personalize the content and advertising you see.
Visit our Privacy Policy to learn more. By continuing to use the site, you agree to this use of cookies and data.
  • In Austria
  • List of Countries
  • For 7 days
  • Water Temperature
  • Satellite Maps
  • Weather Map
  • News
  • Weather Widgets
  • user-avatar
    Login

    Hourly Weather Sidorovskoe

    Today, 18 February, Monday

    Time Temperature Precipitation Wind Pressure Humidity
    00:00 -4°C° 0 mm 4 mps 755 mmHg 80%
    01:00 -4°C° 0 mm 3 mps 755 mmHg 81%
    02:00 -5°C° 0 mm 3 mps 756 mmHg 82%
    03:00 -5°C° 0 mm 3 mps 756 mmHg 83%
    04:00 -6°C° 0 mm 3 mps 757 mmHg 85%
    05:00 -5°C° 0 mm 2 mps 757 mmHg 86%
    06:00 -5°C° 0 mm 2 mps 758 mmHg 87%
    07:00 -5°C° 0 mm 2 mps 758 mmHg 87%
    08:00 -5°C° 0 mm 2 mps 759 mmHg 88%
    09:00 -5°C° 0 mm 2 mps 759 mmHg 83%
    10:00 -4°C° 0 mm 2 mps 760 mmHg 78%
    11:00 -1°C° 0 mm 1 mps 760 mmHg 73%
    12:00 -1°C° 0 mm 1 mps 760 mmHg 69%
    13:00 0°C° 0 mm 1 mps 760 mmHg 66%
    14:00 0°C° 0 mm 1 mps 760 mmHg 62%
    15:00 0°C° 0 mm 1 mps 760 mmHg 66%
    16:00 -1°C° 0 mm 1 mps 760 mmHg 70%
    17:00 -2°C° 0 mm 1 mps 759 mmHg 74%
    18:00 -2°C° 0 mm 1 mps 759 mmHg 76%
    19:00 -4°C° 0 mm 2 mps 759 mmHg 77%
    20:00 -4°C° 0 mm 2 mps 759 mmHg 78%
    21:00 -4°C° 0 mm 2 mps 759 mmHg 77%
    22:00 -5°C° 0 mm 3 mps 758 mmHg 76%
    23:00 -5°C° 0 mm 3 mps 758 mmHg 75%

    Tomorrow, 19 February, Tuesday

    Time Temperature Precipitation Wind Pressure Humidity
    00:00 -5°C° 0 mm 4 mps 757 mmHg 74%
    01:00 -5°C° 0 mm 4 mps 757 mmHg 73%
    02:00 -4°C° 0 mm 4 mps 757 mmHg 71%
    03:00 -4°C° 0 mm 4 mps 756 mmHg 73%
    04:00 -4°C° 0 mm 4 mps 755 mmHg 74%
    05:00 -5°C° 0 mm 5 mps 755 mmHg 75%
    06:00 -5°C° 0 mm 5 mps 754 mmHg 77%
    07:00 -4°C° 0 mm 5 mps 754 mmHg 78%
    08:00 -4°C° 0 mm 5 mps 753 mmHg 80%
    09:00 -2°C° 0 mm 5 mps 753 mmHg 78%
    10:00 -1°C° 0 mm 5 mps 752 mmHg 76%
    11:00 0°C° 0 mm 5 mps 752 mmHg 74%
    12:00 +1°C° 0 mm 5 mps 751 mmHg 74%
    13:00 +1°C° 0 mm 5 mps 751 mmHg 75%
    14:00 +1°C° 0 mm 5 mps 750 mmHg 75%
    15:00 +1°C° 0 mm 5 mps 750 mmHg 78%
    16:00 0°C° 0 mm 4 mps 749 mmHg 81%
    17:00 0°C° 0 mm 4 mps 748 mmHg 84%
    18:00 0°C° 0 mm 4 mps 748 mmHg 85%
    19:00 0°C° 0 mm 5 mps 747 mmHg 86%
    20:00 -1°C° 0 mm 5 mps 747 mmHg 87%
    21:00 0°C° 0 mm 5 mps 746 mmHg 88%
    22:00 0°C° 0 mm 5 mps 745 mmHg 88%
    23:00 0°C° 0 mm 5 mps 744 mmHg 89%

    Day after tomorrow, 20 February, Wednesday

    Time Temperature Precipitation Wind Pressure Humidity
    00:00 0°C° 0.1 mm 5 mps 744 mmHg 89%
    01:00 0°C° 0.1 mm 5 mps 743 mmHg 89%
    02:00 0°C° 0.1 mm 5 mps 743 mmHg 89%
    03:00 +1°C° 0.3 mm 5 mps 742 mmHg 89%
    04:00 +1°C° 0.3 mm 4 mps 742 mmHg 90%
    05:00 +1°C° 0.3 mm 4 mps 742 mmHg 90%
    06:00 +1°C° 0 mm 4 mps 742 mmHg 90%
    07:00 +1°C° 0 mm 4 mps 742 mmHg 89%
    08:00 +1°C° 0 mm 4 mps 742 mmHg 88%
    09:00 +1°C° 0.1 mm 4 mps 742 mmHg 85%
    10:00 +1°C° 0.1 mm 5 mps 742 mmHg 83%
    11:00 +1°C° 0.1 mm 5 mps 742 mmHg 80%
    12:00 +1°C° 0.1 mm 5 mps 741 mmHg 80%
    13:00 +1°C° 0.1 mm 5 mps 741 mmHg 80%
    14:00 +1°C° 0.1 mm 5 mps 741 mmHg 80%
    15:00 +1°C° 0.4 mm 5 mps 741 mmHg 81%
    16:00 +1°C° 0.4 mm 5 mps 741 mmHg 82%
    17:00 +1°C° 0.4 mm 5 mps 740 mmHg 83%
    18:00 -1°C° 0.1 mm 5 mps 741 mmHg 79%
    19:00 -2°C° 0.1 mm 5 mps 741 mmHg 75%
    20:00 -3°C° 0.1 mm 4 mps 741 mmHg 71%
    21:00 -4°C° 0.1 mm 5 mps 741 mmHg 74%
    22:00 -4°C° 0.1 mm 5 mps 742 mmHg 76%
    23:00 -5°C° 0.1 mm 6 mps 742 mmHg 79%

    21 February, Thursday

    Time Temperature Precipitation Wind Pressure Humidity
    00:00 -5°C° 0.2 mm 6 mps 742 mmHg 79%
    01:00 -5°C° 0.2 mm 6 mps 742 mmHg 79%
    02:00 -5°C° 0.2 mm 6 mps 743 mmHg 79%
    03:00 -5°C° 0.1 mm 6 mps 743 mmHg 77%
    04:00 -5°C° 0.1 mm 6 mps 743 mmHg 76%
    05:00 -5°C° 0.1 mm 6 mps 744 mmHg 75%
    06:00 -5°C° 0.1 mm 6 mps 744 mmHg 73%
    07:00 -6°C° 0.1 mm 6 mps 745 mmHg 70%
    08:00 -7°C° 0.1 mm 7 mps 746 mmHg 68%
    09:00 -8°C° 0.1 mm 7 mps 747 mmHg 68%
    10:00 -8°C° 0.1 mm 7 mps 747 mmHg 67%
    11:00 -8°C° 0.1 mm 7 mps 748 mmHg 67%
    12:00 -8°C° 0.1 mm 7 mps 749 mmHg 66%
    13:00 -8°C° 0.1 mm 7 mps 750 mmHg 64%
    14:00 -7°C° 0.1 mm 7 mps 751 mmHg 63%
    15:00 -8°C° 0.1 mm 7 mps 752 mmHg 64%
    16:00 -8°C° 0.1 mm 6 mps 752 mmHg 66%
    17:00 -8°C° 0.1 mm 6 mps 753 mmHg 67%
    18:00 -9°C° 0 mm 6 mps 754 mmHg 67%
    19:00 -9°C° 0 mm 6 mps 755 mmHg 67%
    20:00 -10°C° 0 mm 6 mps 756 mmHg 67%
    21:00 -10°C° 0 mm 5 mps 757 mmHg 67%
    22:00 -11°C° 0 mm 5 mps 758 mmHg 67%
    23:00 -11°C° 0 mm 5 mps 759 mmHg 66%

    22 February, Friday

    Time Temperature Precipitation Wind Pressure Humidity
    00:00 -11°C° 0 mm 5 mps 760 mmHg 67%
    01:00 -12°C° 0 mm 5 mps 760 mmHg 67%
    02:00 -12°C° 0 mm 5 mps 761 mmHg 67%
    03:00 -12°C° 0 mm 5 mps 762 mmHg 68%
    04:00 -11°C° 0 mm 4 mps 762 mmHg 69%
    05:00 -12°C° 0 mm 4 mps 763 mmHg 70%
    06:00 -12°C° 0 mm 4 mps 764 mmHg 71%
    07:00 -11°C° 0 mm 4 mps 764 mmHg 72%
    08:00 -11°C° 0 mm 4 mps 765 mmHg 73%
    09:00 -11°C° 0 mm 4 mps 766 mmHg 69%
    10:00 -11°C° 0 mm 5 mps 766 mmHg 65%
    11:00 -10°C° 0 mm 5 mps 767 mmHg 62%
    12:00 -10°C° 0 mm 5 mps 767 mmHg 60%
    13:00 -8°C° 0 mm 5 mps 767 mmHg 58%
    14:00 -8°C° 0 mm 5 mps 767 mmHg 56%
    15:00 -8°C° 0 mm 4 mps 768 mmHg 59%
    16:00 -9°C° 0 mm 4 mps 768 mmHg 62%
    17:00 -9°C° 0 mm 4 mps 769 mmHg 66%
    18:00 -8°C° 0 mm 3 mps 769 mmHg 69%
    19:00 -9°C° 0 mm 3 mps 770 mmHg 71%
    20:00 -9°C° 0 mm 3 mps 770 mmHg 74%
    21:00 -9°C° 0 mm 3 mps 770 mmHg 76%
    22:00 -9°C° 0 mm 2 mps 771 mmHg 79%
    23:00 -8°C° 0 mm 1 mps 771 mmHg 82%

    23 February, Saturday

    Time Temperature Precipitation Wind Pressure Humidity
    00:00 -8°C° 0 mm 1 mps 771 mmHg 81%
    01:00 -8°C° 0 mm 1 mps 771 mmHg 80%
    02:00 -8°C° 0 mm 1 mps 771 mmHg 79%
    03:00 -8°C° 0 mm 1 mps 770 mmHg 76%
    04:00 -7°C° 0 mm 1 mps 770 mmHg 72%
    05:00 -8°C° 0 mm 2 mps 769 mmHg 68%
    06:00 -7°C° 0 mm 2 mps 769 mmHg 64%
    07:00 -8°C° 0 mm 3 mps 768 mmHg 60%
    08:00 -7°C° 0 mm 3 mps 768 mmHg 56%
    09:00 -8°C° 0.1 mm 4 mps 767 mmHg 63%
    10:00 -8°C° 0.1 mm 4 mps 767 mmHg 70%
    11:00 -8°C° 0.1 mm 5 mps 766 mmHg 77%
    12:00 -7°C° 0.3 mm 4 mps 765 mmHg 79%
    13:00 -7°C° 0.3 mm 4 mps 765 mmHg 82%
    14:00 -7°C° 0.3 mm 4 mps 764 mmHg 84%
    15:00 -7°C° 0.3 mm 4 mps 764 mmHg 85%
    16:00 -6°C° 0.3 mm 3 mps 763 mmHg 86%
    17:00 -5°C° 0.3 mm 3 mps 763 mmHg 87%
    18:00 -5°C° 0.1 mm 3 mps 763 mmHg 88%
    19:00 -5°C° 0.1 mm 3 mps 763 mmHg 88%
    20:00 -4°C° 0.1 mm 2 mps 763 mmHg 89%
    21:00 -3°C° 0 mm 2 mps 762 mmHg 89%
    22:00 -3°C° 0 mm 2 mps 762 mmHg 89%
    23:00 -3°C° 0 mm 2 mps 762 mmHg 89%
    Show more